sat.trackr.live / text

‹ back to catalog

STARLINK-1368

NORAD 45540 · 2020-025K

PAYLOAD ACTIVE UNKNOWN

§ Identity

Operator
Country
US
Launch date
2020-04-22
Launch site
AFETR
Launch vehicle
Mass (kg)
RCS (m²)

Purposes: comms

External: N2YO · Heavens-Above · Gunter

§ Orbital elements

Epoch: 2026-09-19T15:20:08.918304Z

Period
93.10 min
Inclination
53.1524°
Eccentricity
0.0004247
Mean motion
15.46766273 rev/d
Perigee alt
423.3 km
Apogee alt
429.1 km
Semi-major
6,804.3 km
B*
1.5896e-3
RAAN
269.6058°
Arg perigee
66.1807°
Mean anomaly
293.9646°
Rev number
35,501

§ Raw data

STARLINK-13681 45540U 20025K   26262.63899211  .00081338  00000+0  15896-2 0  99972 45540  53.1524 269.6058 0004247  66.1807 293.9646 15.46766273355011

JSON: /api/v1/satellites/45540 · /tle

For live sub-satellite position, see the globe view (requires WebGL).

§ Visibility from observer

Set your observer location to see the next 7 days of passes ≥ 10°. The values pass through the URL so the page stays shareable.

No JS? Fill the form by hand. The geolocation button needs JavaScript.